www.pogodaiklimat.ru

Погода и климат >> Архив погоды >> Ирак >> Тикрит


ПОГОДА в Тикрите

  • Прогноз погоды в Тикрите
  • Монитор погоды в Тикрите

АРХИВ ПОГОДЫ в Тикрите

Время (UTC), дата Ветер
(напр.,м/с)
 
Видим.   Явления Облачность Т
(С)
Тd
(С)
f
(%)
Тe
(С)
Тes
(С)
Комфортность P
(гПа)
Po
(гПа)
Тmin
(С)
Tmax
(С)
R
(мм)
R24
(мм)
S
(см)
06 13.06 С 3 10 км ясно +34.5 +13.1 28 +35 +46 очень
жарко
1006.4 994.5 +24.0
09 13.06 С 2 10 км ясно +39.5 +12.7 20 +39 +60 опасность
солнечного
удара
1005.2 993.5
12 13.06 З 2 10 км ясно +41.6 +13.6 19 +42 +55 опасность
перегрева
1003.8 992.2
15 13.06 СЗ 2 10 км 1/1 750 м
[Cu hum]
+40.5 +14.4 22 +41 +42 опасность
перегрева
1002.9 991.3
06 14.06 СВ 3 10 км ясно +38.0 +15.1 26 +39 +50 очень
душно
1003.9 992.2 +27.0
09 14.06 С 2 10 км ясно +42.0 +13.2 18 +42 +63 опасность
перегрева
1003.4 991.8
12 14.06 СЗ 2 10 км 3/3 750 м
[Cu hum]
+43.5 +12.5 16 +43 +52 опасность
перегрева
1001.7 990.2
15 14.06 ЮЗ 3 10 км 3/3 750 м
[Cu hum]
+42.0 +13.2 18 +42 +42 опасность
перегрева
1001.1 989.6
18 14.06 СЗ 2 10 км ясно +36.5 +13.9 26 +37 +37 очень
жарко
1002.3 990.5 +43.7
06 15.06 СЗ 3 10 км ясно +38.0 +15.1 26 +39 +50 очень
душно
1002.6 990.9 +30.0
09 15.06 В 2 10 км 1/0
[Ci fib]
+43.6 +13.5 17 +43 +64 опасность
перегрева
1001.9 990.4
12 15.06 ЮВ 2 10 км 4/0
[Ac trans]
+44.0 +12.1 15 +43 +53 опасность
перегрева
1000.7 989.2
15 15.06 З 2 10 км 3/0
[Ac trans]
+43.0 +12.7 17 +43 +44 опасность
перегрева
999.7 988.2
06 16.06 В 2 10 км ясно +39.1 +13.8 22 +39 +52 опасность
солнечного
удара
1000.7 989.0 +28.5
09 16.06 ЮВ 2 10 км 1/0
[Ci fib]
+45.2 +13.3 16 +45 +66 опасность
перегрева
1000.1 988.7
12 16.06 Ю 1 10 км 1/0
[Ac trans]
+46.5 +13.1 15 +47 +61 опасность
перегрева
998.2 986.8
15 16.06 штиль 0 10 км ясно +44.2 +14.1 17 +44 +46 опасность
перегрева
997.2 985.8
18 16.06 ЮЗ 1 10 км ясно +37.6 +12.0 22 +37 +37 очень
жарко
998.3 986.6 +46.7
06 17.06 С 3 10 км ясно +36.1 +16.7 32 +39 +49 очень
душно
1004.5 992.7 +30.2
09 17.06 СЗ 3 10 км ясно +42.0 +13.2 18 +42 +59 опасность
перегрева
1004.6 993.0
12 17.06 С 2 10 км ясно +42.8 +7.7 12 +40 +54 опасность
солнечного
удара
1003.8 992.2
15 17.06 З 3 10 км ясно +40.4 +7.1 13 +38 +39 очень
жарко
1003.6 992.0
18 17.06 штиль 0 10 км ясно +35.4 +12.1 25 +35 +35 очень
жарко
1005.0 993.2 +43.0
06 18.06 штиль 0 10 км ясно +37.0 +12.2 23 +37 +54 опасность
солнечного
удара
1006.5 994.7 +29.5
09 18.06 З 3 10 км ясно +40.2 +9.8 16 +39 +56 опасность
солнечного
удара
1005.6 993.9
12 18.06 ЮЗ 2 10 км 1/0
[Ci fib]
+40.6 +10.3 16 +39 +52 опасность
солнечного
удара
1004.3 992.7
15 18.06 З 3 10 км ясно +38.9 +8.1 15 +37 +38 очень
жарко
1003.7 992.0
18 18.06 З 2 10 км ясно +34.0 +11.5 25 +34 +34 очень
жарко
1005.2 993.3 +41.6
06 19.06 С 3 10 км ясно +33.0 +15.4 35 +35 +46 душно 1005.6 993.7 +28.2
09 19.06 СЗ 2 10 км 3/0
[Ac trans]
+37.4 +15.5 27 +39 +56 опасность
солнечного
удара
1004.6 992.8
12 19.06 З 2 10 км 4/0
[Ac trans]
+39.5 +12.7 20 +39 +49 очень
жарко
1003.2 991.5
15 19.06 З 1 10 км 1/0
[Ac trans]
+37.8 +12.8 23 +38 +39 очень
жарко
1002.2 990.5
18 19.06 З 2 10 км ясно +33.6 +13.1 29 +34 +34 очень
жарко
1003.5 991.6 +39.7

 

Местоположение метеостанции Тикрит (Ирак): широта 34.57 долгота 43.70 высота над уровнем моря 107 м.

В архиве по умолчанию представлена погода в Тикрите за последнюю неделю. Архивные данные за месяц целиком и за предыдущие месяцы, начиная с января 2011 года, Вы можете получить, выбрав интересующий диапазон дат из раскрывающегося списка и нажав кнопку "Ввод!".


*Определитесь, кто Вы:
робот инопланетянин человек

Внимание! Время в таблицах - всемирное. Для получения местного времени необходимо прибавить поправку, которая равна 3 ч.

Смотрите также архив погоды в соседних городах и на ближайших метеорологических станциях:

Погода в Бейджи (Ирак) (45 км)
Погода в Тузе (Ирак) (93 км)
Погода в Хите (Ирак) (105 км)
Погода в Эль-Халисе (Ирак) (112 км)
Погода в Киркуке (Ирак) (119 км)
Погода в Эр-Рамади (Ирак) (129 км)
Погода в Махмуре (Ирак) (132 км)
Погода в Хадите (Ирак) (134 км)
Погода в Айн Аль-Тамаре (Ирак) (147 км)
Погода в Чамчамале (Ирак) (147 км)

Пояснения к столбцам:

Ветер - указаны скорость ветра в м/с - средняя за 10 мин, порывы в срок и между сроками (в фигурных скобках) и направление, откуда дует ветер: С - северный, СВ - северо-восточный, В - восточный, ЮВ - юго-восточный, Ю - южный, ЮЗ - юго-западный, З - западный, СЗ - северо-западный.
Видимость - горизонтальная дальность видимости в метрах или километрах. При видимости от 1 до 10 км при отсутствии осадков обычно наблюдается дымка, при ухудшении видимости до 1 км и менее - туман. В сухую погоду видимость может ухудшаться дымом, пылью или мглою.
Явления - указаны атмосферные явления, наблюдавшиеся в срок или в последний час перед сроком; фигурными скобками обозначены явления, наблюдавшиеся между сроками (за 1-3 часа до срока); квадратными скобками обозначены град или гололедные отложения с указанием их диаметра в мм.
Облачность - указаны через наклонную черту общая и нижняя облачность в баллах и высота нижней границы облаков в метрах; квадратными скобками обозначены формы облаков: Ci - перистые, Cs - перисто-слоистые, Cc - перисто-кучевые, Ac - высококучевые, As - высокослоистые, Sc - слоисто-кучевые, Ns - слоисто-дождевые, Cu - кучевые, Cb - кучево-дождевые. Подробнее классификацию облаков см. в Атласе облаков (PDF).
T - Температура воздуха - температура, измеренная на высоте 2 м над землей.
Td - Температура точки росы - температура, при понижении до которой содержащийся в воздухе водяной пар достигнет насыщения.
f - Относительная влажность воздуха - влажноcть воздуха, измеренная на высоте 2 м над землей.
Te - Эффективная температура - температура, которую ощущает одетый по сезону человек в тени. Характеристика душности погоды. При расчете учитывается влияние влажности воздуха и скорости ветра на теплоощущения человека.
Tes - Эффективная температура на солнце - температура, которую ощущает человек, с поправкой на солнечный нагрев. Характеристика знойности погоды. Зависит от высоты солнца над горизонтом, облачности и скорости ветра. Ночью, в пасмурную погоду, а также при ветре 12 м/с и более поправка равна нулю.
P - Атмосферное давление - приведенное к уровню моря атмосферное давление.
Po - Атмосферное давление - измеренное на уровне метеостанции атмосферное давление.
Tmin - Минимальная температура - минимум температуры воздуха на высоте 2 м над землей.
Tmax - Максимальная температура - максимум температуры воздуха на высоте 2 м над землей.
R - Количество осадков - Количество выпавших осадков за период времени, мм. При наведении курсора мыши на число - период времени, за который выпало указанное количество осадков.
R24 - Количество осадков - Количество выпавших осадков за 24 часа, мм.
S - Снежный покров - Высота снежного покрова, см. При наведении курсора мыши на число - состояние снежного покрова и степень покрытия местности в баллах.